Location: Unspecified
(0.0000°N, 0.0000°E)
Time: 00:58:09
(UTC+00:00)

Vanguard 3 - Visible Passes

Search period start: 21 November 2017 00:00
Search period end: 01 December 2017 00:00
Orbit: 509 x 3263 km, 33.4° (Epoch: 18 November)

Date Brightness Start Highest point End Pass type
(mag) Time Alt. Az. Time Alt. Az. Time Alt. Az.
21 Nov 10.1 01:53:15 57° NE 01:53:15 57° NE 02:07:21 10° ESE visible
21 Nov 9.7 03:57:50 33° WNW 04:08:02 64° SW 04:20:50 10° SE visible
22 Nov 10.9 00:43:36 27° E 00:43:36 27° E 00:50:34 10° E visible
22 Nov 9.7 02:48:10 70° NW 02:51:38 90° NE 03:06:51 10° SE visible
22 Nov 10.2 04:52:45 12° W 05:07:26 36° SW 05:18:09 10° SSE visible
23 Nov 10.1 01:38:26 58° ENE 01:38:26 58° ENE 01:51:41 10° ESE visible
23 Nov 9.9 03:43:01 37° W 03:51:31 58° SW 04:05:05 10° SE visible
24 Nov 11.0 00:28:39 26° E 00:28:39 26° E 00:34:58 10° ESE visible
24 Nov 9.7 02:33:13 77° W 02:34:55 82° SW 02:51:02 10° SE visible
24 Nov 10.4 04:37:48 14° W 04:51:12 33° SW 05:02:24 10° SSE visible
25 Nov 10.2 01:23:22 56° E 01:23:22 56° E 01:35:50 10° ESE visible
25 Nov 10.1 03:27:55 39° W 03:34:56 52° SW 03:49:14 10° SE visible
26 Nov 11.0 00:13:26 25° E 00:13:26 25° E 00:19:08 10° ESE visible
26 Nov 9.8 02:17:59 75° SW 02:18:08 75° SW 02:35:05 10° SE visible
26 Nov 10.5 04:22:32 15° W 04:35:01 30° SW 04:46:34 10° SSE visible
27 Nov 10.3 01:07:59 52° ESE 01:07:59 52° ESE 01:19:48 10° ESE visible
27 Nov 10.2 03:12:32 39° WSW 03:18:22 47° SW 03:33:16 10° SSE visible
27 Nov 10.9 05:26:53 10° WSW 05:35:45 16° SSW 05:42:54 10° S visible
27 Nov 11.1 23:57:55 23° ESE 23:57:55 23° ESE 00:03:06 10° ESE visible
28 Nov 10.0 02:02:28 67° SSW 02:02:28 67° SSW 02:18:58 10° SE visible
28 Nov 10.7 04:07:00 15° WSW 04:18:53 27° SSW 04:30:41 10° SSE visible
29 Nov 10.4 00:52:19 48° SE 00:52:19 48° SE 01:03:35 10° SE visible
29 Nov 10.4 02:56:50 38° WSW 03:01:50 42° SW 03:17:10 10° SSE visible
29 Nov 11.1 05:11:38 10° SW 05:20:12 15° SSW 05:27:17 10° S visible
29 Nov 11.1 23:42:06 22° ESE 23:42:06 22° ESE 23:46:52 10° ESE visible
30 Nov 10.1 01:46:37 59° SSW 01:46:37 59° SSW 02:02:42 10° SE visible
30 Nov 10.9 03:51:09 14° WSW 04:02:51 25° SSW 04:14:45 10° SSE visible
